www.pogodaiklimat.ru

Погода и климат >> Архив погоды >> Россия >> Ненецкий АО >> Мыс Константиновский


ПОГОДА на Мысе Константиновском

  • Прогноз погоды на Мысе Константиновском
  • Монитор погоды на Мысе Константиновском

АРХИВ ПОГОДЫ на Мысе Константиновском

Время (UTC), дата Ветер
(напр.,м/с)
 
Видим.   Явления Облачность Т
(С)
Тd
(С)
f
(%)
Тe
(С)
Тes
(С)
Комфортность P
(гПа)
Po
(гПа)
Тmin
(С)
Tmax
(С)
R
(мм)
R24
(мм)
S
(см)
09 9.07 С 5 10 км {ливн. осадки} 10/10 300 м
[Cb cap]
+6.4 +4.6 88 +2 +2 1008.8 1008.0
12 9.07 С 4 10 км {ливн. осадки} 10/10 300 м
[Sc]
+6.7 +4.1 83 +3 +3 1008.8 1008.0
15 9.07 СВ 3 10 км 10/10 300 м
[Cb cap]
+6.4 +3.8 83 +3 +3 1008.1 1007.3 +6.8 2
18 9.07 СВ 2 10 км 10/10 300 м
[Cb cap]
+5.9 +3.0 82 +4 +4 1007.6 1006.8
21 9.07 Ю 1 10 км слаб. ливневой дождь 10/10 300 м
[Cb cap]
+4.7 +3.5 92 +3 +3 1007.5 1006.7
00 10.07 В 6 10 км слаб. ливневой дождь 10/10 300 м
[Cb cap]
+6.5 +5.6 94 +2 +2 1006.8 1006.0
03 10.07 В 9-10
{11}
10 км слаб. ливневой дождь 10/10 300 м
[Cb cap]
+6.2 +5.8 97 0 0 1006.4 1005.6 +4.5 3
06 10.07 В 9-10
{11}
10 км {ливн. осадки} 10/10 300 м
[Cb cap]
+6.6 +5.2 91 +1 +1 1006.2 1005.4
09 10.07 В 9-12
{13}
10 км 10/10 300 м
[Sc]
+7.1 +5.8 91 +2 +2 1006.6 1005.8
12 10.07 СВ 10-13
{13}
10 км 10/10 300 м
[Sc]
+7.4 +6.3 93 +2 +2 1005.9 1005.1
15 10.07 СВ 10-13
{13}
10 км 10/10 300 м
[Sc]
+8.0 +6.7 91 +3 +3 1004.9 1004.1 +8.0 0.3
18 10.07 СВ 11-15
{16}
10 км 10/10 300 м
[Sc]
+7.9 +7.0 94 +2 +2 1003.2 1002.4
21 10.07 В 12-16
{17}
10 км 10/10 300 м
[Sc]
+7.8 +7.2 96 +2 +2 1000.3 999.5
00 11.07 В 15-18
{19}
10 км слаб. ливневой дождь 10/10 300 м
[Cb cap]
+8.1 +7.5 96 +2 +2 997.7 996.9
03 11.07 В 16-20
{22}
10 км слаб. ливневой дождь 10/10 300 м
[Cb cap]
+7.7 +7.3 97 +1 +1 995.7 994.9 +7.5 2
06 11.07 В 14-16
{20}
10 км слаб. ливневой дождь 10/10 300 м
[Cb cap]
+8.0 +7.6 97 +2 +2 994.5 993.7
09 11.07 В 11-13
{17}
10 км {ливн. осадки} 10/10 300 м
[Sc]
+9.5 +8.9 96 +4 +4 994.5 993.7
12 11.07 В 10-12
{14}
200 м туман {ливн. осадки} ?/? +9.4 +9.4 100 +4 +4 994.7 993.9
15 11.07 В 5
{13}
10 км в посл. час гроза {ливн. осадки} 9/9 300 м
[Cb cap]
+11.1 +10.7 97 +8 +8 994.5 993.7 +11.2 9
18 11.07 В 9-10
{11}
10 км {гроза, ливн. осадки} 10/10 300 м
[Sc]
+9.6 +9.0 96 +5 +5 996.5 995.7
21 11.07 В 10-12
{15}
10 км гроза, ливневой дождь 10/10 300 м
[Cb cap]
+8.8 +8.4 97 +4 +4 998.4 997.6
00 12.07 В 8
{12}
10 км слаб. ливневой дождь {гроза} 10/10 300 м
[Cb cap]
+8.4 +8.0 97 +4 +4 999.3 998.5
03 12.07 ЮЗ 8-11
{11}
10 км слаб. ливневой дождь 10/10 300 м
[Cb cap]
+9.3 +8.9 97 +5 +5 1001.4 1000.6 +8.2 11
06 12.07 З 12-16
{16}
10 км {ливн. осадки} 10/10 300 м
[Cb cap]
+8.6 +7.8 95 +3 +3 1004.2 1003.4
09 12.07 З 11-12
{16}
10 км 10/10 300 м
[Sc]
+8.8 +7.3 90 +4 +4 1007.8 1007.0
12 12.07 З 7
{14}
10 км 8/3 300 м
[Sc Ac trans Cs]
+9.5 +7.6 88 +5 +6 1010.4 1009.6
15 12.07 З 4 20 км ясно +9.9 +6.0 77 +7 +8 1012.0 1011.2 +10.1 0.0
18 12.07 ЮЗ 1 20 км 3/1 600 м
[Sc Cs]
+8.8 +5.7 81 +8 +8 1013.3 1012.5
21 12.07 Ю 1 20 км 3/1 600 м
[Sc Cs]
+6.5 +6.1 97 +5 +5 1014.1 1013.3
00 13.07 ЮВ 4 20 км 3/0
[Ci fib]
+5.7 +4.3 91 +2 +2 1014.8 1014.0
03 13.07 В 3 20 км ясно +11.4 +8.4 82 +10 +13 1014.7 1013.9 +4.1
06 13.07 В 5 20 км 8/6 600 м
[Sc Ac trans]
+17.1 +7.6 54 +16 +18 1013.8 1013.0
09 13.07 В 7 20 км 8/6 600 м
[Sc Ac trans]
+14.2 +10.8 80 +12 +13 1012.6 1011.8
12 13.07 ЮВ 6
{10}
20 км 8/6 600 м
[Sc Ac trans]
+18.3 +10.1 59 +18 +19 1011.3 1010.5
15 13.07 В 4 20 км 8/8 600 м
[Sc]
+14.9 +12.9 88 +14 +14 1010.6 1009.8 +21.2
18 13.07 С 2 10 км в посл. час ливневой снег 10/10 300 м
[Cb cap]
+13.9 +12.8 93 +13 +13 1009.1 1008.3
21 13.07 СВ 3 10 км 9/9 300 м
[Cb cap]
+12.6 +11.7 94 +11 +11 1007.5 1006.7
00 14.07 В 4 10 км слаб. ливневой дождь 10/10 300 м
[Cb cap]
+13.1 +12.7 97 +11 +11 1006.8 1006.0
03 14.07 СВ 5 10 км {ливн. осадки} 10/10 300 м
[Sc]
+12.4 +11.8 96 +10 +10 1007.0 1006.2 +12.2 2
06 14.07 С 3 10 км {ливн. осадки} 9/9 300 м
[Sc]
+13.0 +12.3 96 +12 +12 1007.5 1006.7
09 14.07 СЗ 4 200 м туман ?/? +12.3 +12.3 100 +10 +10 1009.5 1008.7
12 14.07 СВ 3 10 км {туман} 10/10 300 м
[Sc]
+11.6 +10.8 95 +10 +10 1011.1 1010.3
15 14.07 С 2 10 км 10/10 300 м
[Sc]
+10.9 +10.1 95 +9 +9 1012.4 1011.6 +13.1
18 14.07 СВ 4 10 км 9/9 300 м
[Sc]
+10.4 +9.6 95 +8 +8 1011.8 1011.0
21 14.07 В 6 200 м туман 10/10 300 м
[St]
+8.7 +8.7 100 +5 +5 1011.7 1010.9
00 15.07 СВ 5 10 км {туман} 10/10 300 м
[Sc]
+8.7 +7.9 95 +5 +5 1012.7 1011.9
03 15.07 СВ 6 10 км 9/9 300 м
[Sc]
+7.7 +6.8 94 +3 +3 1013.2 1012.4 +7.7
06 15.07 В 5 10 км 9/9 300 м
[Sc]
+8.9 +7.0 88 +5 +6 1014.6 1013.8 +7.5
09 15.07 СВ 4 10 км 9/9 600 м
[Sc]
+8.6 +6.2 85 +5 +6 1015.9 1015.1
12 15.07 СВ 5 10 км 9/9 600 м
[Sc]
+8.6 +6.4 86 +5 +5 1016.6 1015.8
15 15.07 В 6 20 км 3/1 600 м
[Sc Cs]
+10.2 +5.9 75 +7 +8 1017.4 1016.6 +10.2
18 15.07 В 6 20 км 4/3 600 м
[Sc Cs]
+9.3 +6.5 83 +6 +6 1017.4 1016.6
21 15.07 В 7 20 км 9/3 600 м
[Sc Cs]
+9.1 +6.5 84 +5 +5 1017.7 1016.9
00 16.07 В 9-10
{11}
10 км 10/10 300 м
[Sc]
+9.1 +6.3 83 +4 +4 1017.5 1016.7
03 16.07 В 8-11
{11}
10 км 10/10 300 м
[Sc]
+8.9 +7.2 89 +4 +4 1015.6 1014.8 +8.4
06 16.07 В 12-16
{17}
10 км 10/10 300 м
[Sc]
+8.5 +7.0 90 +3 +3 1013.8 1013.0

 

Местоположение метеостанции Мыс Константиновский (Ненецкий АО, Россия): широта 68.55 долгота 55.50 высота над уровнем моря 7 м.

В архиве по умолчанию представлена погода на Мысе Константиновском за последнюю неделю. Архивные данные за месяц целиком и за предыдущие месяцы, начиная с января 2011 года, Вы можете получить, выбрав интересующий диапазон дат из раскрывающегося списка и нажав кнопку "Ввод!".


*Определитесь, кто Вы:
робот инопланетянин человек

Внимание! Время в таблицах - всемирное. Для получения местного времени необходимо прибавить поправку, которая равна 3 ч.

Смотрите также архив погоды в соседних городах и на ближайших метеорологических станциях:

Погода в Ходоварихе (Ненецкий АО, Россия) (82 км)
Погода в Варандее (Ненецкий АО, Россия) (106 км)
Погода в Нарьян-Маре (Ненецкий АО, Россия) (145 км)
Погода в Хорей-Вере (Ненецкий АО, Россия) (163 км)
Погода в Сенгейском Шаре (Ненецкий АО, Россия) (173 км)
Погода на Мысе Белый Нос (Ненецкий АО, Россия) (220 км)
Погода в Коткино (Ненецкий АО, Россия) (250 км)
Погода в Бугрино (Ненецкий АО, Россия) (251 км)
Погода в Имени Федорова (Ненецкий АО, Россия) (253 км)
Погода в Харуте (Ненецкий АО, Россия) (254 км)

Пояснения к столбцам:

Ветер - указаны скорость ветра в м/с - средняя за 10 мин, порывы в срок и между сроками (в фигурных скобках) и направление, откуда дует ветер: С - северный, СВ - северо-восточный, В - восточный, ЮВ - юго-восточный, Ю - южный, ЮЗ - юго-западный, З - западный, СЗ - северо-западный.
Видимость - горизонтальная дальность видимости в метрах или километрах. При видимости от 1 до 10 км при отсутствии осадков обычно наблюдается дымка, при ухудшении видимости до 1 км и менее - туман. В сухую погоду видимость может ухудшаться дымом, пылью или мглою.
Явления - указаны атмосферные явления, наблюдавшиеся в срок или в последний час перед сроком; фигурными скобками обозначены явления, наблюдавшиеся между сроками (за 1-3 часа до срока); квадратными скобками обозначены град или гололедные отложения с указанием их диаметра в мм.
Облачность - указаны через наклонную черту общая и нижняя облачность в баллах и высота нижней границы облаков в метрах; квадратными скобками обозначены формы облаков: Ci - перистые, Cs - перисто-слоистые, Cc - перисто-кучевые, Ac - высококучевые, As - высокослоистые, Sc - слоисто-кучевые, Ns - слоисто-дождевые, Cu - кучевые, Cb - кучево-дождевые. Подробнее классификацию облаков см. в Атласе облаков (PDF).
T - Температура воздуха - температура, измеренная на высоте 2 м над землей.
Td - Температура точки росы - температура, при понижении до которой содержащийся в воздухе водяной пар достигнет насыщения.
f - Относительная влажность воздуха - влажноcть воздуха, измеренная на высоте 2 м над землей.
Te - Эффективная температура - температура, которую ощущает одетый по сезону человек в тени. Характеристика душности погоды. При расчете учитывается влияние влажности воздуха и скорости ветра на теплоощущения человека.
Tes - Эффективная температура на солнце - температура, которую ощущает человек, с поправкой на солнечный нагрев. Характеристика знойности погоды. Зависит от высоты солнца над горизонтом, облачности и скорости ветра. Ночью, в пасмурную погоду, а также при ветре 12 м/с и более поправка равна нулю.
P - Атмосферное давление - приведенное к уровню моря атмосферное давление.
Po - Атмосферное давление - измеренное на уровне метеостанции атмосферное давление.
Tmin - Минимальная температура - минимум температуры воздуха на высоте 2 м над землей.
Tmax - Максимальная температура - максимум температуры воздуха на высоте 2 м над землей.
R - Количество осадков - Количество выпавших осадков за период времени, мм. При наведении курсора мыши на число - период времени, за который выпало указанное количество осадков.
R24 - Количество осадков - Количество выпавших осадков за 24 часа, мм.
S - Снежный покров - Высота снежного покрова, см. При наведении курсора мыши на число - состояние снежного покрова и степень покрытия местности в баллах.